[[{"header":{"parameterUnit":"m.s-1","parameterCategory":1,"la1":30.2991,"la2":30.254,"lo1":-89.0895,"lo2":-89.0444,"dy":0.0017,"dx":0.0017,"nx":28,"ny":28,"refTime":"2025-09-06T03:00:00:Z","depth":0,"parameterNumber":2,"parameterNumberName":"U-component_of_WINDS"},"data":[0,0,0,0,0,0,0,0,0,0,0,0,0,0,0,0,0,0,0,0,0,0,0,0,0,0,0,0,0,0,0,0,0,0,0,0,0,0,0,0,0,0,0,0,0,0,0,0,0,0,0,0,0,0,0,0,0,0,0.3446,0.3446,0,0.3494,0.3495,0.3495,0.3525,0.3525,0.3525,0.3525,0.3577,0.3578,0.3579,0,0,0,0,0,0,0,0,0,0,0,0,0,0.3381,0.3382,0.3446,0.3446,0.3447,0.3494,0.3495,0.3495,0.3525,0.3525,0.3525,0.3525,0.3576,0.3578,0.3579,0,0,0,0,0,0,0,0,0,0,0,0,0,0.3417,0.3383,0.3446,0.3467,0.347,0.3494,0.3495,0.3496,0.3525,0.3525,0.3525,0.3525,0.3576,0.3578,0.3579,0.3587,0,0,0.3585,0.3586,0,0,0,0,0,0,0,0,0.3415,0.342,0.3463,0.3466,0.3468,0.3503,0.3491,0.3526,0.3524,0.3504,0.3525,0.3525,0.3552,0.3556,0.3565,0.3589,0.3592,0.3585,0.3587,0.3587,0.3588,0,0,0,0,0,0,0,0.3413,0.3418,0.3465,0.3464,0.3467,0.3475,0.3481,0.3498,0.3526,0.3506,0.3508,0.3513,0.3554,0.3563,0.3566,0.3592,0.3585,0.3587,0.3588,0.3589,0.3626,0.3626,0,0,0,0,0,0,0.3406,0.3416,0.3463,0.3466,0.3442,0.3476,0.3482,0.3492,0.3526,0.3532,0.3513,0.3514,0.356,0.3564,0.3568,0.3579,0.3587,0.3589,0.359,0.3626,0.3626,0.3626,0,0,0,0,0,0,0.3405,0.341,0.3461,0.3442,0.3449,0.3477,0.3488,0.3493,0.3502,0.3532,0.3537,0.3517,0.356,0.3566,0.3582,0.3581,0.359,0.3592,0.3626,0.3626,0.3626,0.3601,0,0,0,0,0,0,0.3403,0.341,0.3412,0.3441,0.345,0.3473,0.3488,0.3494,0.3505,0.3507,0.3537,0.3542,0.3561,0.3579,0.3584,0.3584,0.3593,0.3626,0.3626,0.3626,0.3602,0.36,0.3598,0,0,0,0,0,0.3401,0.3404,0.3412,0.3418,0.3453,0.3473,0.3478,0.3499,0.3505,0.3508,0.3527,0.3541,0.3581,0.358,0.3586,0.3587,0.3627,0.3626,0.3626,0.3603,0.3601,0.3599,0,0,0,0,0,0,0.3374,0.3408,0.3418,0.343,0.3449,0.3478,0.3483,0.3496,0.3513,0.3515,0.3541,0.3547,0.3561,0.3576,0.3575,0.3596,0.3605,0.3606,0.3586,0.3584,0.3582,0.3578,0.3595,0,0,0,0,0,0.337,0.3383,0.3412,0.342,0.3429,0.3454,0.3464,0.3478,0.3499,0.3507,0.3527,0.3547,0.3564,0.3575,0.3592,0.3605,0.3612,0.3608,0.3606,0.3605,0.3605,0.3613,0.3612,0.3625,0.3625,0.3625,0,0,0.3361,0.3381,0.3388,0.3415,0.3431,0.3445,0.3461,0.3474,0.3485,0.3509,0.3526,0.3541,0.3566,0.358,0.3587,0.3593,0.3603,0.3604,0.3603,0.3604,0.3613,0.3611,0.361,0.3625,0.3625,0.3625,0,0,0.3352,0.3368,0.3377,0.3392,0.3416,0.3433,0.3435,0.3463,0.3474,0.3491,0.351,0.3523,0.3552,0.3569,0.3581,0.3578,0.3592,0.3583,0.3573,0.3581,0.358,0.3579,0.3578,0.3578,0.3584,0.3584,0.3584,0,0.3338,0.3358,0.338,0.3392,0.3404,0.3426,0.3436,0.345,0.3479,0.3487,0.3493,0.3529,0.3547,0.3566,0.3565,0.3574,0.3578,0.358,0.3578,0.3578,0.3577,0.3577,0.3576,0.3582,0.3582,0.3583,0.3583,0,0.334,0.3354,0.3358,0.3385,0.3397,0.3408,0.3432,0.3442,0.3456,0.3472,0.349,0.3512,0.3534,0.354,0.3553,0.3561,0.3563,0.3573,0.3583,0.3574,0.3574,0.3574,0.3581,0.3581,0.3581,0.3582,0,0,0.3315,0.3353,0.3354,0.3367,0.3395,0.3407,0.3419,0.344,0.3449,0.3468,0.3479,0.3503,0.3513,0.3526,0.3542,0.3549,0.3545,0.3558,0.3559,0.3555,0.3555,0.3547,0.3546,0.3555,0.3555,0.3555,0.3553,0,0.331,0.3332,0.3352,0.3367,0.3381,0.3403,0.3414,0.3432,0.3448,0.3463,0.3481,0.3498,0.3509,0.3517,0.3525,0.3544,0.3546,0.3545,0.3566,0.3567,0.3559,0.3546,0.3538,0.3535,0.3553,0.3553,0.3553,0,0.3306,0.3324,0.334,0.3368,0.3374,0.3383,0.3404,0.3418,0.344,0.3451,0.3467,0.3483,0.3498,0.3506,0.3528,0.3526,0.3537,0.3548,0.3548,0.3551,0.3559,0.3549,0.3535,0.3534,0.3553,0.3553,0.3553,0,0.3286,0.3314,0.3328,0.3338,0.337,0.3376,0.339,0.3412,0.3424,0.3443,0.3451,0.3471,0.3483,0.3499,0.3521,0.3524,0.354,0.355,0.355,0.3549,0.3552,0.3551,0.3539,0.3558,0.3558,0.3559,0.3559,0,0.3278,0.3287,0.3319,0.3327,0.3339,0.3362,0.3373,0.3389,0.3409,0.3421,0.3442,0.3453,0.3481,0.3496,0.3514,0.3529,0.3534,0.3544,0.3548,0.3542,0.354,0.3548,0.3549,0.3558,0.3558,0.3558,0.3558,0,0.3258,0.3279,0.3295,0.3324,0.3332,0.3339,0.3364,0.3373,0.3391,0.3406,0.3411,0.3438,0.3457,0.3481,0.3507,0.3519,0.3532,0.3539,0.3524,0.3527,0.3525,0.3525,0.3518,0.3518,0.3537,0.3537,0.3537,0,0.3251,0.3258,0.3288,0.3297,0.331,0.3325,0.3337,0.3361,0.3373,0.3399,0.3405,0.3425,0.3442,0.3471,0.3494,0.3514,0.3522,0.3518,0.3525,0.3518,0.3522,0.3521,0.3522,0.3516,0.3516,0.3515,0.3515,0,0.3236,0.3247,0.3263,0.3282,0.3296,0.3312,0.333,0.3337,0.3365,0.3377,0.3396,0.3409,0.3436,0.3456,0.3479,0.3494,0.3509,0.3513,0.3514,0.3507,0.3498,0.3503,0.3519,0.3513,0.3513,0.3513,0.3513,0.3513,0.3223,0.323,0.3252,0.3269,0.3285,0.3301,0.3311,0.333,0.3346,0.3369,0.3382,0.3401,0.3424,0.3457,0.3471,0.3487,0.3492,0.3494,0.3494,0.3494,0.3492,0.3496,0.3491,0.3491,0.3491,0.3491,0.3491,0,0.3209,0.3224,0.324,0.3264,0.3277,0.329,0.3311,0.3321,0.3337,0.3357,0.3373,0.3395,0.3415,0.3439,0.346,0.3468,0.3475,0.3473,0.3472,0.3475,0.3486,0.3483,0.3466,0.3466,0.3466,0.3466,0.3466,0.3466,0.3204,0.3217,0.323,0.3252,0.3268,0.3286,0.3296,0.3312,0.3328,0.3351,0.3367,0.3382,0.3404,0.3427,0.3446,0.3453,0.3459,0.3454,0.3463,0.3472,0.3475,0.3477,0.3474,0.3456,0.3456,0.3452,0.3451,0.3451]},{"header":{"parameterUnit":"m.s-1","parameterCategory":1,"la1":30.2991,"la2":30.254,"lo1":-89.0895,"lo2":-89.0444,"dy":0.0017,"dx":0.0017,"nx":28,"ny":28,"refTime":"2025-09-06T03:00:00:Z","depth":0,"parameterNumber":3,"parameterNumberName":"V-component_of_WINDS"},"data":[0,0,0,0,0,0,0,0,0,0,0,0,0,0,0,0,0,0,0,0,0,0,0,0,0,0,0,0,0,0,0,0,0,0,0,0,0,0,0,0,0,0,0,0,0,0,0,0,0,0,0,0,0,0,0,0,0,0,0.7026,0.7026,0,0.7041,0.7041,0.7041,0.7078,0.7079,0.708,0.7081,0.7093,0.7092,0.7092,0,0,0,0,0,0,0,0,0,0,0,0,0,0.7021,0.7021,0.7026,0.7026,0.7026,0.7041,0.7041,0.7042,0.7078,0.7079,0.708,0.7081,0.7093,0.7092,0.7092,0,0,0,0,0,0,0,0,0,0,0,0,0,0.7029,0.7021,0.7026,0.7046,0.7048,0.7041,0.7041,0.7042,0.7078,0.7079,0.708,0.7082,0.7093,0.7092,0.7092,0.7065,0,0,0.709,0.709,0,0,0,0,0,0,0,0,0.7028,0.7029,0.7043,0.7045,0.7047,0.7059,0.7044,0.7049,0.7078,0.7067,0.7081,0.7082,0.708,0.7081,0.7081,0.7065,0.7066,0.709,0.709,0.7089,0.7089,0,0,0,0,0,0,0,0.7028,0.7028,0.7032,0.7043,0.7046,0.7053,0.7055,0.7045,0.7067,0.7068,0.707,0.7072,0.7082,0.7082,0.7082,0.7066,0.709,0.7089,0.7089,0.7089,0.7023,0.7022,0,0,0,0,0,0,0.7025,0.7028,0.7031,0.7032,0.704,0.7052,0.7054,0.7054,0.7067,0.707,0.7071,0.7074,0.7082,0.7082,0.7082,0.7048,0.7089,0.7089,0.7088,0.7025,0.7023,0.7021,0,0,0,0,0,0,0.7025,0.7025,0.7031,0.7031,0.7032,0.7051,0.705,0.7054,0.7054,0.7069,0.7073,0.7067,0.7083,0.7083,0.7068,0.7049,0.7088,0.7088,0.7026,0.7024,0.7022,0.6981,0,0,0,0,0,0,0.7024,0.7025,0.7016,0.703,0.7032,0.7018,0.7049,0.7053,0.7053,0.7057,0.7067,0.707,0.7084,0.7069,0.7067,0.7049,0.7087,0.7028,0.7025,0.7023,0.6984,0.6977,0.6972,0,0,0,0,0,0.7024,0.7004,0.7016,0.7016,0.7022,0.7017,0.7017,0.7035,0.7052,0.7042,0.7051,0.7069,0.7051,0.7067,0.7066,0.7046,0.7029,0.7026,0.7023,0.6986,0.6979,0.6972,0,0,0,0,0,0,0.6987,0.7007,0.7019,0.7004,0.7008,0.7023,0.7012,0.7027,0.7027,0.703,0.7051,0.7053,0.7033,0.7039,0.7056,0.7018,0.7043,0.7039,0.7016,0.7008,0.7003,0.7001,0.7087,0,0,0,0,0,0.6977,0.6973,0.699,0.6974,0.6976,0.6993,0.6992,0.7005,0.701,0.7012,0.702,0.7023,0.7017,0.7014,0.701,0.6985,0.6985,0.6971,0.6965,0.696,0.6956,0.6939,0.6932,0.7011,0.7011,0.7011,0,0,0.6957,0.6967,0.6963,0.6967,0.6972,0.6964,0.6994,0.6987,0.698,0.701,0.6996,0.7001,0.7006,0.6984,0.6976,0.6988,0.6934,0.6956,0.6952,0.6951,0.6935,0.6927,0.6921,0.7009,0.7009,0.701,0,0,0.6915,0.6923,0.6909,0.6913,0.6921,0.6932,0.6928,0.694,0.6945,0.6931,0.6952,0.6944,0.6935,0.6936,0.6935,0.6889,0.6905,0.6888,0.6856,0.6839,0.6833,0.6827,0.6807,0.68,0.6884,0.6884,0.6884,0,0.6888,0.6879,0.69,0.689,0.6889,0.6916,0.69,0.6902,0.6907,0.6905,0.6919,0.6906,0.6911,0.6889,0.6877,0.6877,0.687,0.6886,0.6833,0.6827,0.6822,0.6803,0.6796,0.6882,0.6882,0.6882,0.6882,0,0.6844,0.6837,0.6825,0.6829,0.6827,0.6814,0.683,0.6825,0.6837,0.6846,0.6829,0.6835,0.6831,0.6827,0.684,0.6805,0.6812,0.6829,0.6854,0.6812,0.6794,0.6787,0.6878,0.6879,0.688,0.688,0,0,0.678,0.6794,0.6789,0.6789,0.6797,0.6791,0.6777,0.6774,0.6768,0.677,0.6756,0.6747,0.6761,0.676,0.6773,0.6758,0.6716,0.6777,0.6777,0.6762,0.6673,0.6658,0.665,0.6727,0.6726,0.6725,0.6672,0,0.6738,0.6717,0.6734,0.6708,0.67,0.6723,0.6711,0.6713,0.672,0.6712,0.6719,0.671,0.6733,0.6731,0.6718,0.6724,0.6698,0.6729,0.6712,0.6711,0.6707,0.6642,0.6627,0.6576,0.6666,0.6664,0.6664,0,0.6687,0.6686,0.666,0.6666,0.6663,0.6652,0.6647,0.6641,0.6642,0.6648,0.6645,0.666,0.6643,0.6669,0.6644,0.6664,0.6658,0.666,0.6658,0.6655,0.6683,0.6634,0.6561,0.6552,0.6654,0.6655,0.6655,0,0.6639,0.6631,0.6613,0.6613,0.6621,0.6611,0.6614,0.6617,0.6612,0.6608,0.6604,0.6598,0.6594,0.6588,0.6599,0.6617,0.6571,0.6599,0.6572,0.6572,0.6561,0.6561,0.6483,0.6561,0.6561,0.6561,0.6561,0,0.6589,0.6572,0.6591,0.658,0.6559,0.6577,0.6555,0.656,0.6561,0.6549,0.6569,0.6557,0.6574,0.6562,0.6571,0.6547,0.6546,0.6547,0.6549,0.6544,0.6543,0.6538,0.6541,0.6559,0.656,0.656,0.656,0,0.6532,0.6545,0.6526,0.6534,0.6536,0.652,0.6525,0.6513,0.6521,0.6505,0.6502,0.6513,0.65,0.6511,0.6498,0.6504,0.6471,0.6479,0.647,0.6472,0.6443,0.6444,0.6358,0.6345,0.6434,0.6433,0.6433,0,0.6499,0.6485,0.6491,0.6484,0.6485,0.6475,0.647,0.6486,0.6479,0.6477,0.6465,0.6453,0.6445,0.6422,0.6428,0.6417,0.6423,0.6393,0.6422,0.6415,0.6419,0.6418,0.6415,0.6387,0.6386,0.6385,0.6385,0,0.6436,0.6442,0.6435,0.6428,0.6422,0.6418,0.6415,0.6408,0.6423,0.6414,0.6401,0.6395,0.6381,0.6367,0.6358,0.6358,0.6372,0.6376,0.6368,0.6361,0.6355,0.6354,0.6451,0.6377,0.6378,0.6379,0.6379,0.6379,0.6387,0.6375,0.6376,0.6366,0.6365,0.6361,0.6349,0.6354,0.6344,0.6334,0.6343,0.6326,0.6323,0.6312,0.631,0.6295,0.6307,0.6297,0.6294,0.6291,0.6285,0.636,0.6294,0.6294,0.6294,0.6294,0.6294,0,0.6323,0.6324,0.6315,0.6309,0.63,0.6316,0.6312,0.6302,0.6288,0.6285,0.6275,0.6258,0.6244,0.6247,0.6234,0.6221,0.6227,0.6217,0.6217,0.6215,0.6277,0.6283,0.6212,0.6212,0.6212,0.6212,0.6212,0.6212,0.6288,0.6267,0.6272,0.6248,0.6249,0.6233,0.6229,0.6224,0.6221,0.6201,0.619,0.6192,0.619,0.6176,0.6163,0.6164,0.6157,0.6144,0.6147,0.6204,0.6212,0.6219,0.6225,0.6143,0.6143,0.6086,0.6085,0.6085]}]]